Flag for India Weather past 2 weeks in Varanasi, Uttar Pradesh, India

Now
81 °F

Passing clouds.


Feels Like: 87 °F
Forecast: 80 / 97 °F
Wind: 3 mph from East

Location: Lucknow / Amausi

Current Time: Aug 28, 2014 at 5:22:05 AM

Latest Report: Aug 28, 2014 at 4:00 AM


Visibility: 2 mi

Pressure: 29.62 "Hg

Humidity: 89%

Dew point: 77 °F

Location of VaranasiLocation

Historic Weather in Varanasi — Graph

°F

Varanasi temperature yesterday

Maximum temperature yesterday: 102 °F (at 3:00 PM)
Minimum temperature yesterday: 82 °F (at 7:00 PM)
Average temperature yesterday: 91 °F

Past Weeks' High & Low Weather Summary

 TemperatureHumidityPressure
High106 °F (Aug 26, 3:30 PM)94% (Aug 13, 5:30 AM)29.77 "Hg (Aug 13, 5:30 AM)
Low79 °F (Aug 16, 5:00 AM)42% (Aug 24, 5:00 PM)29.45 "Hg (Aug 13, 3:00 PM)
Average91 °F70%29.60 "Hg
* Reported Aug 13 4:00 AM — Aug 28 4:00 AM, Varanasi, Weather by CustomWeather, © 2014

Note: Actual official high and low records may vary slightly from our data, if they occured in-between our weather recording intervals... More about our weather records

Advertising

Varanasi weather history for previous 24 hours

 ConditionsComfort  
Time TempWeatherWind HumidityBarometerVisibility
4:00 AM
Aug 28
81 °FPassing clouds.3 mph89%29.62 "Hg2 mi
2:00 AM81 °FPartly cloudy.2 mph89%29.62 "Hg2 mi
1:00 AM82 °FPartly cloudy.3 mph89%29.62 "Hg2 mi
12:00 AM82 °FPartly cloudy.3 mph89%29.62 "Hg2 mi
8:00 PM
Aug 27
82 °FPartly cloudy.6 mph89%29.56 "Hg2 mi
7:30 PM82 °FThundershowers. Mostly cloudy.3 mph89%29.56 "Hg2 mi
7:00 PM82 °FThundershowers. More clouds than sun.3 mph89%29.53 "Hg2 mi
5:30 PM91 °FBroken clouds.No wind71%29.50 "Hg3 mi
5:00 PM93 °FBroken clouds.2 mph71%29.50 "Hg3 mi
4:30 PM95 °FBroken clouds.No wind71%29.53 "Hg3 mi
4:00 PM95 °FBroken clouds.2 mph67%29.53 "Hg3 mi
3:30 PM102 °FBroken clouds.6 mph54%29.53 "Hg3 mi
3:00 PM102 °FBroken clouds.5 mph57%29.53 "Hg3 mi
2:30 PM100 °FBroken clouds.7 mph60%29.56 "Hg3 mi
2:00 PM100 °FBroken clouds.5 mph60%29.59 "Hg3 mi
1:30 PM99 °FScattered clouds.9 mph60%29.59 "Hg3 mi
12:30 PM99 °FScattered clouds.7 mph60%29.62 "Hg3 mi
12:00 PM97 °FHaze.N/A63%29.62 "Hg3 mi
11:30 AM97 °FHaze.8 mph67%29.65 "Hg3 mi
11:00 AM97 °FScattered clouds.8 mph63%29.65 "Hg3 mi
10:30 AM97 °FHaze.7 mph63%29.65 "Hg3 mi
10:00 AM95 °FHaze.6 mph67%29.65 "Hg3 mi
8:30 AM88 °FScattered clouds.2 mph75%29.62 "Hg2 mi
8:00 AM88 °FScattered clouds.2 mph79%29.62 "Hg2 mi
7:30 AM86 °FBroken clouds.3 mph79%29.62 "Hg2 mi
7:00 AM84 °FScattered clouds.No wind84%29.62 "Hg2 mi
6:30 AM84 °FScattered clouds.3 mph84%29.59 "Hg2 mi
5:30 AM84 °FPassing clouds.No wind79%29.59 "Hg2 mi
5:00 AM84 °FPassing clouds.No wind84%29.59 "Hg2 mi
Weather by CustomWeather, © 2014

See weather overviewHow to use our weather pages